Dewpoint
53 53 53 53 54 54 54 54 55 55 55 55 56 56 57 58 57 51 47 42 44 61 69 52 47 45 54 62 62 61 56 50 54 55 52 53 54 56 58 59 60 60 63 62 63
53 53 53 53 53 53 53 54 54 54 55 55 55 55 56 57 52 46 50 59 60 64 43 28 40 34 41 55 58 58 50 55 55 55 54 52 53 54 56 59 60 61 63 63 63
53 53 53 53 53 53 53 53 54 54 54 55 55 55 55 55 48 41 62 61 61 67 38 30 28 32 36 49 52 53 52 57 53 54 54 48 49 49 55 58 60 60 61 62 63
53 53 54 53 53 53 53 54 54 54 54 55 56 56 55 52 34 32 67 68 62 53 37 30 26 31 34 44 50 49 55 53 51 52 50 49 51 47 53 60 61 61 61 62 62
54 55 55 55 55 55 55 55 54 54 54 56 57 55 53 45 41 44 68 70 54 46 33 25 25 31 31 37 45 45 54 51 51 51 52 53 49 48 59 62 62 62 62 62 62
55 55 55 55 55 55 55 54 55 53 54 56 57 55 50 40 39 40 51 54 49 38 31 25 26 28 34 33 39 42 52 50 50 52 53 52 51 50 59 61 61 61 62 62 62
55 55 54 54 54 54 54 54 54 53 53 57 58 53 44 35 35 36 49 44 39 34 26 24 25 24 33 35 35 38 40 51 50 52 53 53 53 54 58 59 60 61 61 62 62
55 54 54 54 53 53 53 53 53 53 54 57 57 53 44 41 41 38 37 44 35 31 27 24 24 23 23 36 37 37 39 41 43 49 51 53 54 57 55 59 58 60 61 61 62
54 53 53 53 53 52 52 52 55 55 55 56 54 50 41 47 40 39 38 26 37 36 31 29 23 23 24 33 33 37 37 38 40 44 45 48 54 55 56 59 57 58 59 60 61
53 53 52 52 52 51 51 52 54 55 56 52 50 47 45 32 35 37 37 35 27 31 36 31 28 25 29 32 31 36 36 37 40 41 43 50 51 54 55 58 58 57 59 59 60
53 53 52 52 51 50 48 40 21 34 24 19 21 31 23 36 29 37 35 35 28 28 35 36 35 30 30 33 35 37 36 35 36 41 42 44 50 53 56 55 56 56 58 58 58
53 52 52 51 51 49 46 23 18 19 16 18 18 19 19 20 22 26 32 32 26 25 32 34 34 34 32 33 33 33 34 35 33 34 40 48 50 53 53 56 55 55 59 59 56
52 52 51 51 50 45 34 19 18 17 17 19 17 14 15 15 15 20 25 29 24 23 30 32 34 35 32 32 32 32 32 33 33 31 39 47 48 50 52 56 57 58 59 58 55
52 51 51 50 41 34 32 21 18 19 20 19 14 20 17 13 10 15 23 25 26 21 24 32 33 33 32 30 30 30 32 34 34 33 37 37 40 50 52 53 53 56 57 55 53
51 51 50 50 41 36 33 23 18 22 16 19 16 21 17 14 13 7 15 21 22 23 25 27 32 31 31 29 27 26 29 29 32 33 34 37 36 48 50 48 51 54 56 54 55
50 50 50 43 40 36 28 21 22 20 16 5 12 12 12 13 17 22 17 19 22 24 26 28 33 33 31 29 28 28 28 27 27 30 29 28 35 36 43 47 49 54 56 57 55
49 48 48 43 35 33 32 21 20 15 8 6 10 10 8 9 12 15 18 19 15 22 23 28 29 31 32 30 29 28 26 22 21 25 28 26 29 35 36 40 48 52 55 56 53
48 47 47 40 38 34 23 21 20 14 8 10 10 7 3 2 3 7 14 20 27 22 21 24 26 31 33 31 28 26 24 21 18 18 22 22 21 27 32 36 37 47 53 53 53
47 42 39 37 37 28 25 22 19 12 12 11 9 6 4 4 8 10 20 19 28 34 22 20 25 31 32 32 26 21 21 19 15 21 20 21 23 26 27 28 31 37 47 50 52
43 41 39 37 29 29 24 25 21 13 13 10 7 8 8 7 9 16 19 23 25 38 39 29 18 23 27 32 30 19 20 17 14 15 16 18 22 24 25 25 28 27 39 44 50
41 36 34 34 30 28 21 21 18 15 14 10 9 10 12 10 16 16 18 22 31 37 38 34 28 21 21 28 28 22 19 16 16 18 16 19 19 23 27 26 26 29 34 42 46
37 30 34 34 28 27 23 26 27 18 14 15 17 18 17 20 16 17 21 23 33 36 36 34 31 26 20 21 25 24 18 19 15 16 18 17 16 30 26 28 26 31 30 38 44
36 34 35 33 28 30 30 28 24 17 21 22 21 22 28 26 19 20 27 31 35 35 34 34 32 27 24 21 21 23 18 18 20 21 19 14 15 24 28 28 27 33 35 34 45
37 29 32 34 32 31 29 30 29 28 24 23 24 29 31 30 21 21 30 34 35 35 43 43 34 34 26 25 23 24 21 17 16 18 18 20 19 28 30 31 34 34 39 44 43
36 31 34 29 31 32 31 30 31 30 31 29 29 26 31 28 25 25 29 28 29 40 41 33 28 30 30 31 29 27 23 19 16 16 21 21 26 29 31 36 41 44 45 44 46
34 40 38 37 35 32 31 30 29 33 30 27 25 25 29 28 28 29 29 26 26 34 37 31 27 31 33 32 30 29 29 20 19 18 18 21 18 35 37 36 40 41 42 41 46
45 43 41 38 35 33 31 32 32 31 32 30 28 28 26 26 29 30 20 22 22 31 32 29 25 28 30 33 32 31 31 30 20 21 20 20 23 37 36 41 41 43 41 42 45
Lifted_Index
18 18 18 18 18 18 18 18 17 17 17 17 17 16 15 14 14 14 13 13 13 11 9 9 9 8 5 1 -1 -2 -1 -1 -1 -1 -1 -1 -1 -2 -2 -2 -2 -2 -1 -1 -1
18 18 18 18 18 18 18 18 17 17 17 17 17 17 16 15 14 13 13 13 13 11 11 11 11 9 6 2 -0 -1 -1 -0 -1 -1 -1 -1 -1 -1 -1 -2 -2 -2 -1 -1 -1
18 18 18 18 18 18 18 18 17 17 17 17 17 17 16 14 12 11 12 11 11 11 12 13 12 10 7 4 1 1 0 -0 -1 -1 -1 -1 -1 -1 -1 -2 -2 -1 -1 -1 -1
18 18 18 18 18 18 18 17 17 17 17 17 16 16 15 13 10 10 10 10 10 11 12 13 11 10 8 5 3 2 1 -0 -1 -1 -1 -1 -1 -1 -1 -2 -2 -2 -1 -2 -2
18 17 17 17 18 17 17 17 17 17 17 16 15 15 14 11 9 9 9 8 9 11 12 12 11 9 7 5 3 2 1 -1 -1 -0 -1 -1 -1 -1 -2 -2 -2 -2 -2 -2 -2
17 17 17 17 17 17 17 17 18 18 17 15 14 14 12 10 9 9 8 8 10 11 12 12 10 9 7 6 4 3 1 -1 -1 -1 -1 -2 -1 -1 -2 -2 -2 -2 -2 -2 -2
16 16 17 17 17 17 17 18 18 17 17 15 14 13 12 10 10 9 9 9 11 12 12 12 11 9 7 6 4 3 2 -0 -1 -2 -2 -2 -1 -1 -2 -2 -2 -2 -3 -3 -2
16 16 16 17 17 17 17 17 17 16 15 14 13 12 11 10 10 9 9 10 10 11 11 12 11 9 7 6 4 3 2 1 -1 -2 -2 -2 -1 -1 -1 -2 -2 -2 -2 -2 -2
17 17 17 17 17 17 17 16 16 14 13 12 12 11 10 10 10 9 9 10 10 10 10 11 11 9 7 6 4 4 3 2 0 -1 -2 -2 -1 -1 -1 -1 -2 -2 -2 -2 -2
17 17 18 18 18 17 16 16 15 13 12 12 12 11 10 9 9 9 9 9 9 9 9 9 9 8 7 6 5 4 3 2 1 -1 -1 -1 -1 -1 -1 -2 -2 -2 -2 -2 -2
18 18 18 18 18 17 16 16 16 14 14 13 12 11 10 9 9 8 8 9 9 8 8 7 7 7 7 6 5 3 3 2 1 -1 -1 -2 -1 -1 -1 -2 -2 -2 -2 -1 -2
18 18 18 19 18 17 16 17 17 16 14 13 13 11 10 9 9 8 8 8 8 7 7 6 6 6 6 6 5 4 3 2 1 -0 -2 -2 -2 -1 -1 -2 -2 -2 -1 -1 -1
17 17 17 18 17 16 15 16 18 16 13 12 12 11 11 10 9 8 8 8 7 7 7 6 5 5 6 5 5 4 3 2 1 -0 -1 -2 -2 -1 -1 -1 -1 -1 -1 -1 -1
14 14 15 15 14 13 12 14 15 14 10 9 11 11 11 11 10 8 8 8 7 7 7 6 5 5 5 5 5 5 4 3 1 -0 -1 -2 -1 -1 -1 -1 -1 -1 -1 -1 -1
11 11 11 11 10 9 9 10 10 8 6 7 9 11 11 11 10 8 7 7 7 7 7 6 5 5 5 6 6 5 4 3 1 -0 -1 -1 -1 -1 -1 -1 -1 -2 -2 -1 -1
9 9 9 9 8 8 8 7 6 4 3 5 7 8 9 9 8 7 7 7 7 6 6 6 5 4 5 5 5 5 4 3 2 0 0 -0 -1 -1 -1 -1 -1 -2 -2 -2 -2
9 8 8 8 8 8 8 6 4 3 3 4 6 6 5 5 6 7 7 7 7 6 6 5 4 4 4 4 5 4 4 3 1 0 1 1 0 0 -0 -1 -2 -3 -3 -3 -2
9 8 7 7 7 7 7 5 3 3 4 5 5 5 4 4 5 7 7 7 7 6 5 5 4 4 3 4 4 4 4 3 1 1 1 1 1 2 1 -0 -1 -2 -3 -3 -3
8 7 6 6 6 7 6 4 3 3 4 5 5 4 4 4 5 6 7 6 5 5 4 4 4 3 2 2 3 4 4 3 2 1 1 1 2 2 2 1 -0 -1 -2 -3 -3
7 6 5 5 6 6 5 4 2 3 4 4 4 4 5 5 5 6 6 5 4 4 4 4 4 3 2 2 2 3 2 2 2 1 1 1 1 1 1 1 1 0 -1 -3 -3
7 5 5 5 5 5 4 3 3 3 3 4 4 4 4 4 5 6 6 5 4 4 4 4 4 3 2 2 2 2 2 2 2 2 1 1 1 1 1 1 1 1 -0 -2 -2
7 6 5 5 5 4 3 3 3 3 3 3 3 3 3 3 4 5 6 6 6 5 4 4 4 3 3 3 2 1 1 2 2 2 2 1 1 1 1 0 0 0 -0 -1 -1
7 6 5 5 5 4 3 3 2 2 2 2 2 2 1 1 2 4 6 7 6 6 4 4 4 3 3 2 1 1 1 2 2 2 2 1 1 1 1 0 -0 0 0 -0 -1
7 6 6 6 5 5 4 3 2 1 1 1 1 1 1 0 1 3 5 6 7 6 5 5 4 3 3 2 2 1 0 1 1 2 2 2 1 1 0 -0 0 0 0 0 -0
8 7 7 6 5 5 4 3 2 1 0 0 0 0 0 0 0 1 4 6 7 6 6 5 4 4 3 2 2 1 0 0 1 2 2 2 1 0 0 0 0 1 1 0 0
9 8 7 6 5 5 5 3 2 1 0 -0 -0 -0 0 0 0 1 2 5 6 6 5 5 4 3 3 2 2 1 1 0 1 1 1 2 1 1 0 0 1 1 1 1 0
9 9 8 6 5 5 5 3 2 1 0 -0 -0 -0 -0 0 0 0 2 5 6 6 5 5 3 3 2 2 2 2 1 0 0 1 1 1 1 1 0 0 1 1 1 1 1